This demonstration page uses our WeatherBlox Daily Observations layout. Learn more.

Left ArrowRight Arrow

36.17497, -115.13722

Hourly Observations for December 24, 2020

Temp ( °F °C ) Dew Point ( °F °C ) Humidity (%) Winds ( mph kmh ) Pressure ( in mb ) Visibility ( mi km ) Precip ( " mm )
12:53 am 00:53 Clear 40 4.4 7 -13.9 25 25 Calm 30.56 1035 10 16.0934 0 0
1:53 am 01:53 Clear 38 3.3 8 -13.3 29 29 SW 3 6 30.55 1035 10 16.0934 0 0
2:53 am 02:53 Clear 36 2.2 8 -13.3 31 31 Calm 30.55 1035 10 16.0934 0 0
3:53 am 03:53 Clear 34 1.1 10 -12.2 37 37 NW 5 7 30.54 1034 10 16.0934 0 0
4:53 am 04:53 Clear 34 1.1 8 -13.3 34 34 NNW 5 7 30.54 1034 10 16.0934 0 0
5:53 am 05:53 Clear 35 1.7 6 -14.4 29 29 WNW 6 9 30.54 1034 10 16.0934 0 0
6:53 am 06:53 Sunny 34 1.1 8 -13.3 34 34 NW 6 9 30.55 1034 10 16.0934 0 0
7:53 am 07:53 Sunny 37 2.8 8 -13.3 30 30 SW 5 7 30.55 1034 10 16.0934 0 0
8:53 am 08:53 Sunny 40 4.4 10 -12.2 29 29 Calm 30.55 1035 10 16.0934 0 0
9:53 am 09:53 Sunny 42 5.6 10 -12.2 27 27 S 3 6 30.54 1034 10 16.0934 0 0
10:53 am 10:53 Sunny 45 7.2 8 -13.3 22 22 Calm 30.51 1033 10 16.0934 0 0
11:53 am 11:53 Sunny 47 8.3 8 -13.3 20 20 W 5 7 30.47 1032 10 16.0934 0 0
12:53 pm 12:53 Sunny 49 9.4 6 -14.4 17 17 Calm 30.43 1031 10 16.0934 0 0
1:53 pm 13:53 Sunny 50 10 5 -15 16 16 SW 3 6 30.42 1030 10 16.0934 0 0
2:53 pm 14:53 Sunny 50 10 6 -14.4 17 17 SE 5 7 30.4 1029 10 16.0934 0 0
3:53 pm 15:53 Sunny 49 9.4 7 -13.9 18 18 SSE 5 7 30.37 1029 10 16.0934 0 0
4:53 pm 16:53 Clear 47 8.3 8 -13.3 20 20 ENE 3 6 30.36 1028 10 16.0934 0 0
5:53 pm 17:53 Clear 46 7.8 9 -12.8 22 22 Calm 30.37 1028 10 16.0934 0 0
6:53 pm 18:53 Clear 45 7.2 13 -10.6 27 27 Calm 30.38 1029 10 16.0934 0 0
7:53 pm 19:53 Clear 43 6.1 13 -10.6 29 29 Calm 30.37 1028 10 16.0934 0 0
8:53 pm 20:53 Clear 43 6.1 11 -11.7 27 27 WNW 5 7 30.36 1028 10 16.0934 0 0
9:53 pm 21:53 Clear 43 6.1 13 -10.6 29 29 NW 5 7 30.34 1027 10 16.0934 0 0
10:53 pm 22:53 Clear 41 5 12 -11.1 30 30 Calm 30.32 1027 10 16.0934 0 0
11:53 pm 23:53 Clear 39 3.9 12 -11.1 33 33 WNW 5 7 30.31 1026 10 16.0934 0 0

Powered by AerisWeather